^^

..:: Storico WU ::.. Logo MeteoMincio




  Full-screen


Lo storico viene creato da WUnderground con i dati che la stazione Meteomincio invia dal 15 maggio 2010. L' aggiornamento viene fatto ogni 5 minuti circa, tuttavia possono esserci intervalli più ampi a causa di errori, interruzioni di servizio o problemi nell' invio tramite FTP.

Storico stazione MeteoMincio
 
Giorno Sommario per Aprile 30, 2017 Unità:  Metrico    Inglese   Entrambi
« Precedente Giorno
Prossimo Giorno »
Giorno Settimana Mese Anno Custom
  Corrente: Max: Min: Media:
Temperatura: 18.4 °C 19.9 °C 5.9 °C 13.2 °C
Dew Point: 6.2 °C 8.4 °C 4.2 °C 6.1 °C
Humidità: 45 % 89 % 41 % 65 %
Velocità vento: 35.4 km/h 35.4 km/h 35.4 km/h 35.4 km/h
Raffica: 35.4 km/h 35.4 km/h - -
Direzione:East - - East
Pressione: 1012.8 hPa 1017.2 hPa 1012.8 hPa -
Precipitazioni: 0.0 mm      
Historical Graphs
 
 
Tabulato Dati per Aprile 30, 2017
Ora Temperatura Dew Point Pressione Direzione Velocità vento Raffica Umidità Intensità pioggia (oraria) Info solare Situazione
00:03 9.8 °C 7.4 °C 1016.8 hPa SE 35.4 km/h 35.4 km/h 85 % 0.0 mm 0.0 W/m2 CLR
00:09 9.7 °C 7.3 °C 1016.8 hPa SE 35.4 km/h 35.4 km/h 85 % 0.0 mm 0.0 W/m2 CLR
00:14 9.6 °C 7.2 °C 1016.8 hPa SE 35.4 km/h 35.4 km/h 85 % 0.0 mm 0.0 W/m2 CLR
00:19 9.7 °C 7.3 °C 1016.8 hPa SE 35.4 km/h 35.4 km/h 85 % 0.0 mm 0.0 W/m2 CLR
00:24 9.7 °C 7.3 °C 1016.8 hPa SE 35.4 km/h 35.4 km/h 85 % 0.0 mm 0.0 W/m2 CLR
00:29 9.7 °C 7.2 °C 1016.8 hPa SE 35.4 km/h 35.4 km/h 84 % 0.0 mm 0.0 W/m2 CLR
00:34 9.7 °C 7.1 °C 1016.8 hPa SE 35.4 km/h 35.4 km/h 84 % 0.0 mm 0.0 W/m2 CLR
00:39 9.4 °C 6.9 °C 1016.8 hPa ENE 35.4 km/h 35.4 km/h 84 % 0.0 mm 0.0 W/m2 CLR
00:44 9.6 °C 6.7 °C 1016.8 hPa ENE 35.4 km/h 35.4 km/h 82 % 0.0 mm 0.0 W/m2 CLR
00:49 9.3 °C 6.6 °C 1016.8 hPa ENE 35.4 km/h 35.4 km/h 83 % 0.0 mm 0.0 W/m2 CLR
00:54 9.2 °C 6.6 °C 1016.8 hPa ENE 35.4 km/h 35.4 km/h 84 % 0.0 mm 0.0 W/m2 CLR
00:59 9.1 °C 6.7 °C 1016.8 hPa ENE 35.4 km/h 35.4 km/h 85 % 0.0 mm 0.0 W/m2 CLR
01:04 9.0 °C 6.4 °C 1016.8 hPa ENE 35.4 km/h 35.4 km/h 84 % 0.0 mm 0.0 W/m2 CLR
01:09 9.1 °C 6.5 °C 1016.8 hPa ENE 35.4 km/h 35.4 km/h 84 % 0.0 mm 0.0 W/m2 CLR
01:14 9.1 °C 6.4 °C 1017.2 hPa ENE 35.4 km/h 35.4 km/h 83 % 0.0 mm 0.0 W/m2 CLR
01:19 8.9 °C 6.2 °C 1016.8 hPa ENE 35.4 km/h 35.4 km/h 83 % 0.0 mm 0.0 W/m2 CLR
01:24 8.9 °C 6.2 °C 1016.8 hPa ENE 35.4 km/h 35.4 km/h 83 % 0.0 mm 0.0 W/m2 CLR
01:29 9.0 °C 6.1 °C 1017.2 hPa ENE 35.4 km/h 35.4 km/h 82 % 0.0 mm 0.0 W/m2 CLR
01:34 9.2 °C 6.1 °C 1016.8 hPa ENE 35.4 km/h 35.4 km/h 81 % 0.0 mm 0.0 W/m2 CLR
01:39 9.1 °C 5.9 °C 1016.8 hPa ENE 35.4 km/h 35.4 km/h 81 % 0.0 mm 0.0 W/m2 CLR
01:44 9.1 °C 5.9 °C 1016.8 hPa ENE 35.4 km/h 35.4 km/h 81 % 0.0 mm 0.0 W/m2 CLR
01:49 9.1 °C 5.8 °C 1016.8 hPa NE 35.4 km/h 35.4 km/h 80 % 0.0 mm 0.0 W/m2 CLR
01:54 9.1 °C 5.8 °C 1016.8 hPa NE 35.4 km/h 35.4 km/h 80 % 0.0 mm 0.0 W/m2 CLR
01:59 9.1 °C 5.8 °C 1016.8 hPa NE 35.4 km/h 35.4 km/h 80 % 0.0 mm 0.0 W/m2 CLR
02:04 9.1 °C 5.7 °C 1016.8 hPa NE 35.4 km/h 35.4 km/h 79 % 0.0 mm 0.0 W/m2 CLR
02:09 9.1 °C 5.8 °C 1016.8 hPa NE 35.4 km/h 35.4 km/h 80 % 0.0 mm 0.0 W/m2 CLR
02:14 9.1 °C 5.8 °C 1016.8 hPa NE 35.4 km/h 35.4 km/h 80 % 0.0 mm 0.0 W/m2 CLR
02:19 9.1 °C 5.8 °C 1016.8 hPa NE 35.4 km/h 35.4 km/h 80 % 0.0 mm 0.0 W/m2 CLR
02:24 9.0 °C 5.7 °C 1016.8 hPa NE 35.4 km/h 35.4 km/h 80 % 0.0 mm 0.0 W/m2 CLR
02:29 8.8 °C 5.6 °C 1016.8 hPa NE 35.4 km/h 35.4 km/h 80 % 0.0 mm 0.0 W/m2 CLR
02:34 8.7 °C 5.7 °C 1016.8 hPa NE 35.4 km/h 35.4 km/h 81 % 0.0 mm 0.0 W/m2 CLR
02:39 8.7 °C 5.6 °C 1016.8 hPa NE 35.4 km/h 35.4 km/h 81 % 0.0 mm 0.0 W/m2 CLR
02:44 8.6 °C 5.6 °C 1016.8 hPa NE 35.4 km/h 35.4 km/h 81 % 0.0 mm 0.0 W/m2 CLR
02:49 8.6 °C 5.7 °C 1016.8 hPa NE 35.4 km/h 35.4 km/h 82 % 0.0 mm 0.0 W/m2 CLR
02:54 8.3 °C 5.4 °C 1016.8 hPa NE 35.4 km/h 35.4 km/h 82 % 0.0 mm 0.0 W/m2 CLR
02:59 8.4 °C 5.7 °C 1016.8 hPa NE 35.4 km/h 35.4 km/h 83 % 0.0 mm 0.0 W/m2 CLR
03:04 8.5 °C 5.6 °C 1016.8 hPa NE 35.4 km/h 35.4 km/h 82 % 0.0 mm 0.0 W/m2 CLR
03:09 8.3 °C 5.4 °C 1016.8 hPa NE 35.4 km/h 35.4 km/h 82 % 0.0 mm 0.0 W/m2 CLR
03:14 7.9 °C 5.4 °C 1016.8 hPa NE 35.4 km/h 35.4 km/h 84 % 0.0 mm 0.0 W/m2 CLR
03:19 7.8 °C 5.4 °C 1016.8 hPa NE 35.4 km/h 35.4 km/h 85 % 0.0 mm 0.0 W/m2 CLR
03:24 7.6 °C 5.4 °C 1016.8 hPa NE 35.4 km/h 35.4 km/h 86 % 0.0 mm 0.0 W/m2 CLR
03:29 7.4 °C 5.3 °C 1016.8 hPa NE 35.4 km/h 35.4 km/h 86 % 0.0 mm 0.0 W/m2 CLR
03:34 7.4 °C 5.4 °C 1016.8 hPa NE 35.4 km/h 35.4 km/h 87 % 0.0 mm 0.0 W/m2 CLR
03:39 7.4 °C 5.4 °C 1016.8 hPa NE 35.4 km/h 35.4 km/h 87 % 0.0 mm 0.0 W/m2 CLR
03:44 7.5 °C 5.3 °C 1016.8 hPa NE 35.4 km/h 35.4 km/h 86 % 0.0 mm 0.0 W/m2 CLR
03:49 7.5 °C 5.3 °C 1016.8 hPa NE 35.4 km/h 35.4 km/h 86 % 0.0 mm 0.0 W/m2 CLR
03:51 7.5 °C 5.3 °C 1016.8 hPa NE 35.4 km/h 35.4 km/h 86 % 0.0 mm 0.0 W/m2 CLR
03:56 7.4 °C 5.3 °C 1016.8 hPa NE 35.4 km/h 35.4 km/h 86 % 0.0 mm 0.0 W/m2 CLR
04:01 7.4 °C 5.1 °C 1016.8 hPa NE 35.4 km/h 35.4 km/h 85 % 0.0 mm 0.0 W/m2 CLR
04:06 7.4 °C 5.2 °C 1016.8 hPa NE 35.4 km/h 35.4 km/h 86 % 0.0 mm 0.0 W/m2 CLR
04:11 7.5 °C 5.3 °C 1016.8 hPa NE 35.4 km/h 35.4 km/h 86 % 0.0 mm 0.0 W/m2 CLR
04:16 7.7 °C 5.3 °C 1016.8 hPa NE 35.4 km/h 35.4 km/h 85 % 0.0 mm 0.0 W/m2 CLR
04:21 7.7 °C 5.1 °C 1016.8 hPa NE 35.4 km/h 35.4 km/h 84 % 0.0 mm 0.0 W/m2 CLR
04:26 7.8 °C 5.2 °C 1016.8 hPa NE 35.4 km/h 35.4 km/h 84 % 0.0 mm 0.0 W/m2 CLR
04:31 7.6 °C 5.1 °C 1016.8 hPa NE 35.4 km/h 35.4 km/h 84 % 0.0 mm 0.0 W/m2 CLR
04:36 7.4 °C 5.1 °C 1016.8 hPa NE 35.4 km/h 35.4 km/h 85 % 0.0 mm 0.0 W/m2 CLR
04:41 7.6 °C 5.0 °C 1016.8 hPa NE 35.4 km/h 35.4 km/h 84 % 0.0 mm 0.0 W/m2 CLR
04:46 7.4 °C 4.8 °C 1016.8 hPa NE 35.4 km/h 35.4 km/h 84 % 0.0 mm 0.0 W/m2 CLR
04:51 7.5 °C 4.9 °C 1016.8 hPa NE 35.4 km/h 35.4 km/h 84 % 0.0 mm 0.0 W/m2 CLR
04:56 7.5 °C 4.8 °C 1016.8 hPa NE 35.4 km/h 35.4 km/h 83 % 0.0 mm 0.0 W/m2 CLR
05:01 7.2 °C 4.7 °C 1016.8 hPa NE 35.4 km/h 35.4 km/h 84 % 0.0 mm 0.0 W/m2 CLR
05:06 7.1 °C 4.7 °C 1016.8 hPa NE 35.4 km/h 35.4 km/h 85 % 0.0 mm 0.0 W/m2 CLR
05:11 7.0 °C 4.7 °C 1016.8 hPa NE 35.4 km/h   85 % 0.0 mm 0.0 W/m2 CLR
05:16 6.9 °C 4.8 °C 1016.8 hPa NE 35.4 km/h   86 % 0.0 mm 0.0 W/m2 CLR
05:21 6.8 °C 4.7 °C 1016.8 hPa NE 35.4 km/h   86 % 0.0 mm 0.0 W/m2 CLR
05:26 6.8 °C 4.8 °C 1016.8 hPa NE 35.4 km/h 35.4 km/h 87 % 0.0 mm 0.0 W/m2 CLR
05:31 6.7 °C 4.7 °C 1016.8 hPa ENE 35.4 km/h   87 % 0.0 mm 0.0 W/m2 CLR
05:36 6.4 °C 4.4 °C 1016.8 hPa ENE 35.4 km/h   87 % 0.0 mm 0.0 W/m2 CLR
05:41 6.1 °C 4.3 °C 1016.8 hPa ENE 35.4 km/h 35.4 km/h 88 % 0.0 mm 0.0 W/m2 CLR
05:46 6.0 °C 4.2 °C 1016.8 hPa ENE 35.4 km/h 35.4 km/h 88 % 0.0 mm 0.0 W/m2 CLR
05:51 6.0 °C 4.3 °C 1016.8 hPa ENE 35.4 km/h 35.4 km/h 89 % 0.0 mm 0.0 W/m2 CLR
05:52 6.0 °C 4.3 °C 1016.8 hPa ENE 35.4 km/h   89 % 0.0 mm 0.0 W/m2 CLR
05:57 6.1 °C 4.2 °C 1016.8 hPa ENE 35.4 km/h   88 % 0.0 mm 0.0 W/m2 CLR
06:02 5.9 °C 4.3 °C 1016.8 hPa ENE 35.4 km/h   89 % 0.0 mm 0.0 W/m2 CLR
06:07 5.9 °C 4.3 °C 1016.8 hPa ENE 35.4 km/h   89 % 0.0 mm 0.0 W/m2 CLR
06:12 6.0 °C 4.3 °C 1016.8 hPa NE 35.4 km/h   89 % 0.0 mm 0.0 W/m2 OVC
06:17 6.0 °C 4.3 °C 1016.8 hPa NE 35.4 km/h   89 % 0.0 mm 5.0 W/m2 BKN
06:22 6.0 °C 4.3 °C 1016.8 hPa NE 35.4 km/h   89 % 0.0 mm 9.0 W/m2 BKN
06:27 6.1 °C 4.4 °C 1016.8 hPa NE 35.4 km/h   89 % 0.0 mm 11.0 W/m2 BKN
06:32 6.1 °C 4.4 °C 1016.8 hPa NNE 35.4 km/h   89 % 0.0 mm 14.0 W/m2 BKN
06:37 6.3 °C 4.6 °C 1016.8 hPa NNE 35.4 km/h   89 % 0.0 mm 16.0 W/m2 BKN
06:42 6.5 °C 4.8 °C 1016.8 hPa NNE 35.4 km/h   89 % 0.0 mm 19.0 W/m2 BKN
06:47 6.5 °C 4.8 °C 1017.2 hPa NNE 35.4 km/h   89 % 0.0 mm 37.0 W/m2 BKN
06:52 6.4 °C 4.8 °C 1017.2 hPa NNE 35.4 km/h   89 % 0.0 mm 44.0 W/m2 SCT
06:57 6.7 °C 4.8 °C 1016.8 hPa NNE 35.4 km/h 35.4 km/h 88 % 0.0 mm 53.0 W/m2 SCT
07:02 6.9 °C 5.1 °C 1016.8 hPa NNE 35.4 km/h   88 % 0.0 mm 63.0 W/m2 SCT
07:07 7.3 °C 5.5 °C 1016.8 hPa NNE 35.4 km/h   88 % 0.0 mm 76.0 W/m2 SCT
07:12 7.9 °C 5.7 °C 1016.8 hPa NNE 35.4 km/h 35.4 km/h 86 % 0.0 mm 88.0 W/m2 SCT
07:17 7.9 °C 5.6 °C 1016.8 hPa NNE 35.4 km/h 35.4 km/h 85 % 0.0 mm 105.0 W/m2 SCT
07:22 8.0 °C 5.6 °C 1016.8 hPa NNE 35.4 km/h 35.4 km/h 85 % 0.0 mm 120.0 W/m2 FEW
07:27 8.3 °C 5.9 °C 1016.8 hPa NNE 35.4 km/h 35.4 km/h 85 % 0.0 mm 135.0 W/m2 FEW
07:32 8.6 °C 5.9 °C 1016.8 hPa NNE 35.4 km/h 35.4 km/h 83 % 0.0 mm 153.0 W/m2 FEW
07:37 8.9 °C 6.1 °C 1017.2 hPa NE 35.4 km/h 35.4 km/h 82 % 0.0 mm 171.0 W/m2 CLR
07:42 9.2 °C 5.9 °C 1017.2 hPa NE 35.4 km/h 35.4 km/h 80 % 0.0 mm 185.0 W/m2 CLR
07:47 9.4 °C 5.9 °C 1017.2 hPa NNE 35.4 km/h 35.4 km/h 79 % 0.0 mm 199.0 W/m2 CLR
07:52 9.6 °C 6.2 °C 1017.2 hPa NE 35.4 km/h 35.4 km/h 79 % 0.0 mm 211.0 W/m2 CLR
07:57 9.9 °C 6.2 °C 1017.2 hPa NE 35.4 km/h 35.4 km/h 78 % 0.0 mm 225.0 W/m2 CLR
08:02 10.1 °C 6.2 °C 1017.2 hPa NE 35.4 km/h 35.4 km/h 77 % 0.0 mm 241.0 W/m2 CLR
08:07 10.4 °C 6.6 °C 1017.2 hPa NE 35.4 km/h 35.4 km/h 77 % 0.0 mm 255.0 W/m2 CLR
08:12 10.7 °C 6.8 °C 1017.2 hPa NNE 35.4 km/h 35.4 km/h 77 % 0.0 mm 271.0 W/m2 CLR
08:17 11.2 °C 7.3 °C 1017.2 hPa NNE 35.4 km/h 35.4 km/h 77 % 0.0 mm 287.0 W/m2 CLR
08:22 11.4 °C 7.3 °C 1017.2 hPa ENE 35.4 km/h 35.4 km/h 76 % 0.0 mm 302.0 W/m2 CLR
08:27 11.6 °C 7.3 °C 1017.2 hPa NE 35.4 km/h 35.4 km/h 75 % 0.0 mm 316.0 W/m2 CLR
08:32 11.7 °C 7.4 °C 1017.2 hPa NE 35.4 km/h 35.4 km/h 75 % 0.0 mm 332.0 W/m2 CLR
08:37 11.7 °C 7.6 °C 1017.2 hPa ENE 35.4 km/h 35.4 km/h 76 % 0.0 mm 348.0 W/m2 CLR
08:42 11.8 °C 7.5 °C 1017.2 hPa ENE 35.4 km/h 35.4 km/h 75 % 0.0 mm 364.0 W/m2 CLR
08:47 12.2 °C 7.7 °C 1017.2 hPa ENE 35.4 km/h 35.4 km/h 74 % 0.0 mm 376.0 W/m2 CLR
08:52 12.8 °C 7.8 °C 1017.2 hPa ENE 35.4 km/h 35.4 km/h 72 % 0.0 mm 392.0 W/m2 CLR
08:57 12.8 °C 7.4 °C 1017.2 hPa NE 35.4 km/h 35.4 km/h 70 % 0.0 mm 410.0 W/m2 CLR
09:02 13.0 °C 7.7 °C 1017.2 hPa ENE 35.4 km/h 35.4 km/h 70 % 0.0 mm 425.0 W/m2 CLR
09:07 13.2 °C 7.6 °C 1017.2 hPa East 35.4 km/h 35.4 km/h 69 % 0.0 mm 436.0 W/m2 CLR
09:12 13.3 °C 7.8 °C 1017.2 hPa NNE 35.4 km/h 35.4 km/h 69 % 0.0 mm 452.0 W/m2 CLR
09:18 13.4 °C 7.9 °C 1017.2 hPa ENE 35.4 km/h 35.4 km/h 69 % 0.0 mm 468.0 W/m2 CLR
09:23 14.1 °C 8.2 °C 1017.2 hPa NE 35.4 km/h 35.4 km/h 68 % 0.0 mm 485.0 W/m2 CLR
09:28 14.4 °C 8.4 °C 1017.2 hPa NE 35.4 km/h 35.4 km/h 67 % 0.0 mm 499.0 W/m2 CLR
09:33 14.2 °C 7.7 °C 1017.2 hPa NNE 35.4 km/h 35.4 km/h 65 % 0.0 mm 512.0 W/m2 CLR
09:38 14.4 °C 8.1 °C 1017.2 hPa NE 35.4 km/h 35.4 km/h 66 % 0.0 mm 527.0 W/m2 CLR
09:43 14.7 °C 8.2 °C 1016.8 hPa East 35.4 km/h 35.4 km/h 65 % 0.0 mm 541.0 W/m2 CLR
09:48 14.7 °C 7.4 °C 1017.2 hPa ENE 35.4 km/h 35.4 km/h 62 % 0.0 mm 550.0 W/m2 CLR
09:53 14.9 °C 7.2 °C 1016.8 hPa NE 35.4 km/h 35.4 km/h 60 % 0.0 mm 564.0 W/m2 CLR
09:58 15.1 °C 6.9 °C 1016.8 hPa NE 35.4 km/h 35.4 km/h 58 % 0.0 mm 580.0 W/m2 CLR
10:03 15.3 °C 7.6 °C 1016.8 hPa NE 35.4 km/h 35.4 km/h 60 % 0.0 mm 591.0 W/m2 CLR
10:08 15.7 °C 7.4 °C 1016.8 hPa NNE 35.4 km/h 35.4 km/h 58 % 0.0 mm 610.0 W/m2 CLR
10:13 15.2 °C 6.9 °C 1016.8 hPa East 35.4 km/h 35.4 km/h 58 % 0.0 mm 619.0 W/m2 CLR
10:18 15.3 °C 6.6 °C 1016.8 hPa NE 35.4 km/h 35.4 km/h 56 % 0.0 mm 636.0 W/m2 CLR
10:23 15.2 °C 5.7 °C 1016.8 hPa East 35.4 km/h 35.4 km/h 53 % 0.0 mm 647.0 W/m2 CLR
10:28 15.5 °C 6.8 °C 1016.8 hPa ESE 35.4 km/h 35.4 km/h 56 % 0.0 mm 657.0 W/m2 CLR
10:33 15.6 °C 6.6 °C 1016.8 hPa NE 35.4 km/h 35.4 km/h 55 % 0.0 mm 671.0 W/m2 CLR
10:38 15.7 °C 6.9 °C 1016.8 hPa NNE 35.4 km/h 35.4 km/h 56 % 0.0 mm 679.0 W/m2 CLR
10:44 16.0 °C 6.9 °C 1016.8 hPa ENE 35.4 km/h 35.4 km/h 55 % 0.0 mm 694.0 W/m2 CLR
10:49 15.8 °C 6.6 °C 1016.8 hPa ENE 35.4 km/h 35.4 km/h 54 % 0.0 mm 707.0 W/m2 CLR
10:54 16.0 °C 6.4 °C 1016.8 hPa South 35.4 km/h 35.4 km/h 53 % 0.0 mm 726.0 W/m2 CLR
10:59 16.1 °C 5.9 °C 1016.8 hPa SSE 35.4 km/h 35.4 km/h 51 % 0.0 mm 719.0 W/m2 CLR
11:04 16.3 °C 6.4 °C 1016.5 hPa ESE 35.4 km/h 35.4 km/h 52 % 0.0 mm 751.0 W/m2 FEW
11:09 16.7 °C 6.2 °C 1016.5 hPa East 35.4 km/h 35.4 km/h 50 % 0.0 mm 759.0 W/m2 FEW
11:14 16.3 °C 5.8 °C 1016.5 hPa SE 35.4 km/h 35.4 km/h 50 % 0.0 mm 754.0 W/m2 FEW
11:19 16.4 °C 6.2 °C 1016.5 hPa SSE 35.4 km/h 35.4 km/h 51 % 0.0 mm 777.0 W/m2 FEW
11:24 17.0 °C 6.5 °C 1016.5 hPa East 35.4 km/h 35.4 km/h 50 % 0.0 mm 784.0 W/m2 FEW
11:29 16.5 °C 6.1 °C 1016.5 hPa ESE 35.4 km/h 35.4 km/h 50 % 0.0 mm 796.0 W/m2 FEW
11:34 17.1 °C 7.1 °C 1016.5 hPa ESE 35.4 km/h 35.4 km/h 52 % 0.0 mm 807.0 W/m2 FEW
11:39 17.2 °C 6.3 °C 1016.5 hPa East 35.4 km/h 35.4 km/h 49 % 0.0 mm 817.0 W/m2 FEW
11:44 17.0 °C 6.5 °C 1016.1 hPa ENE 35.4 km/h 35.4 km/h 50 % 0.0 mm 821.0 W/m2 FEW
11:49 17.9 °C 6.7 °C 1016.5 hPa NE 35.4 km/h 35.4 km/h 48 % 0.0 mm 782.0 W/m2 FEW
11:54 17.4 °C 6.9 °C 1016.1 hPa SE 35.4 km/h 35.4 km/h 50 % 0.0 mm 763.0 W/m2 FEW
11:59 17.0 °C 6.2 °C 1016.1 hPa South 35.4 km/h 35.4 km/h 49 % 0.0 mm 404.0 W/m2 FEW
12:04 17.6 °C 6.4 °C 1016.1 hPa South 35.4 km/h 35.4 km/h 48 % 0.0 mm 872.0 W/m2 FEW
12:09 17.1 °C 5.7 °C 1016.1 hPa SW 35.4 km/h 35.4 km/h 47 % 0.0 mm 652.0 W/m2 FEW
12:11 17.1 °C 5.7 °C 1016.1 hPa SW 35.4 km/h 35.4 km/h 47 % 0.0 mm 621.0 W/m2 FEW
12:16 17.3 °C 6.2 °C 1016.1 hPa SSW 35.4 km/h 35.4 km/h 48 % 0.0 mm 807.0 W/m2 FEW
12:21 17.9 °C 7.3 °C 1016.1 hPa South 35.4 km/h 35.4 km/h 50 % 0.0 mm 717.0 W/m2 FEW
12:26 18.1 °C 6.6 °C 1015.8 hPa North 35.4 km/h 35.4 km/h 47 % 0.0 mm 359.0 W/m2 FEW
12:31 17.7 °C 6.9 °C 1015.8 hPa ESE 35.4 km/h 35.4 km/h 49 % 0.0 mm 339.0 W/m2 FEW
12:36 17.7 °C 6.2 °C 1015.8 hPa ENE 35.4 km/h 35.4 km/h 47 % 0.0 mm 468.0 W/m2 FEW
12:41 17.6 °C 6.8 °C 1015.8 hPa East 35.4 km/h 35.4 km/h 49 % 0.0 mm 881.0 W/m2 FEW
12:46 17.8 °C 6.3 °C 1015.8 hPa ESE 35.4 km/h 35.4 km/h 47 % 0.0 mm 896.0 W/m2 FEW
12:51 18.2 °C 6.3 °C 1015.8 hPa ENE 35.4 km/h 35.4 km/h 46 % 0.0 mm 817.0 W/m2 FEW
12:56 18.2 °C 6.7 °C 1015.8 hPa ENE 35.4 km/h 35.4 km/h 47 % 0.0 mm 863.0 W/m2 FEW
13:01 18.2 °C 6.1 °C 1015.8 hPa East 35.4 km/h 35.4 km/h 45 % 0.0 mm 925.0 W/m2 FEW
13:06 18.0 °C 6.2 °C 1015.5 hPa East 35.4 km/h 35.4 km/h 46 % 0.0 mm 896.0 W/m2 FEW
13:11 18.0 °C 5.9 °C 1015.5 hPa East 35.4 km/h 35.4 km/h 45 % 0.0 mm 891.0 W/m2 FEW
13:16 18.6 °C 7.1 °C 1015.5 hPa ENE 35.4 km/h 35.4 km/h 47 % 0.0 mm 921.0 W/m2 FEW
13:21 18.5 °C 7.3 °C 1015.5 hPa SW 35.4 km/h 35.4 km/h 48 % 0.0 mm 900.0 W/m2 FEW
13:26 18.4 °C 6.9 °C 1015.5 hPa SE 35.4 km/h 35.4 km/h 47 % 0.0 mm 896.0 W/m2 FEW
13:31 17.9 °C 5.8 °C 1015.5 hPa East 35.4 km/h 35.4 km/h 45 % 0.0 mm 921.0 W/m2 SCT
13:36 18.6 °C 6.7 °C 1015.1 hPa NE 35.4 km/h 35.4 km/h 46 % 0.0 mm 898.0 W/m2 SCT
13:41 18.5 °C 5.7 °C 1015.1 hPa ESE 35.4 km/h 35.4 km/h 43 % 0.0 mm 884.0 W/m2 SCT
13:46 18.6 °C 6.8 °C 1015.1 hPa SSE 35.4 km/h 35.4 km/h 46 % 0.0 mm 868.0 W/m2 SCT
13:51 18.4 °C 6.3 °C 1015.1 hPa South 35.4 km/h 35.4 km/h 45 % 0.0 mm 895.0 W/m2 SCT
13:56 18.2 °C 5.7 °C 1015.1 hPa NE 35.4 km/h 35.4 km/h 44 % 0.0 mm 232.0 W/m2 SCT
14:01 18.1 °C 6.0 °C 1015.1 hPa ESE 35.4 km/h 35.4 km/h 45 % 0.0 mm 879.0 W/m2 SCT
14:07 18.3 °C 6.2 °C 1015.1 hPa ENE 35.4 km/h 35.4 km/h 45 % 0.0 mm 909.0 W/m2 SCT
14:12 18.3 °C 5.8 °C 1015.1 hPa North 35.4 km/h 35.4 km/h 44 % 0.0 mm 888.0 W/m2 SCT
14:17 19.2 °C 7.0 °C 1014.8 hPa WNW 35.4 km/h 35.4 km/h 45 % 0.0 mm 870.0 W/m2 SCT
14:22 19.1 °C 6.6 °C 1014.8 hPa ENE 35.4 km/h 35.4 km/h 44 % 0.0 mm 881.0 W/m2 SCT
14:27 18.7 °C 6.8 °C 1014.8 hPa ENE 35.4 km/h 35.4 km/h 46 % 0.0 mm 884.0 W/m2 SCT
14:32 19.1 °C 5.9 °C 1014.8 hPa NE 35.4 km/h 35.4 km/h 42 % 0.0 mm 875.0 W/m2 SCT
14:37 19.2 °C 6.7 °C 1014.8 hPa North 35.4 km/h 35.4 km/h 44 % 0.0 mm 204.0 W/m2 SCT
14:42 18.5 °C 5.7 °C 1014.8 hPa South 35.4 km/h 35.4 km/h 43 % 0.0 mm 881.0 W/m2 SCT
14:47 18.8 °C 5.6 °C 1014.8 hPa SE 35.4 km/h 35.4 km/h 42 % 0.0 mm 893.0 W/m2 SCT
14:52 18.9 °C 5.7 °C 1014.4 hPa SE 35.4 km/h 35.4 km/h 42 % 0.0 mm 877.0 W/m2 SCT
14:57 19.5 °C 6.6 °C 1014.4 hPa ESE 35.4 km/h 35.4 km/h 43 % 0.0 mm 858.0 W/m2 SCT
15:02 19.2 °C 6.7 °C 1014.4 hPa East 35.4 km/h 35.4 km/h 44 % 0.0 mm 842.0 W/m2 SCT
15:07 18.8 °C 6.0 °C 1014.4 hPa SE 35.4 km/h 35.4 km/h 43 % 0.0 mm 824.0 W/m2 SCT
15:12 19.4 °C 6.9 °C 1014.4 hPa NNE 35.4 km/h 35.4 km/h 44 % 0.0 mm 840.0 W/m2 SCT
15:17 19.1 °C 6.2 °C 1014.1 hPa East 35.4 km/h 35.4 km/h 43 % 0.0 mm 761.0 W/m2 SCT
15:22 19.3 °C 6.1 °C 1014.1 hPa East 35.4 km/h 35.4 km/h 42 % 0.0 mm 816.0 W/m2 SCT
15:27 19.4 °C 6.6 °C 1014.1 hPa NNW 35.4 km/h 35.4 km/h 43 % 0.0 mm 729.0 W/m2 SCT
15:32 19.6 °C 6.7 °C 1014.1 hPa SE 35.4 km/h 35.4 km/h 43 % 0.0 mm 840.0 W/m2 SCT
15:37 19.4 °C 7.2 °C 1014.1 hPa East 35.4 km/h 35.4 km/h 45 % 0.0 mm 840.0 W/m2 SCT
15:42 19.0 °C 6.1 °C 1014.1 hPa ENE 35.4 km/h 35.4 km/h 43 % 0.0 mm 803.0 W/m2 SCT
15:47 19.5 °C 6.6 °C 1013.8 hPa ENE 35.4 km/h 35.4 km/h 43 % 0.0 mm 784.0 W/m2 SCT
15:52 19.6 °C 5.9 °C 1013.8 hPa NE 35.4 km/h 35.4 km/h 41 % 0.0 mm 788.0 W/m2 SCT
15:57 19.7 °C 6.4 °C 1013.8 hPa SSW 35.4 km/h 35.4 km/h 42 % 0.0 mm 752.0 W/m2 SCT
16:02 19.8 °C 6.8 °C 1013.8 hPa ESE 35.4 km/h 35.4 km/h 43 % 0.0 mm 742.0 W/m2 SCT
16:07 19.9 °C 6.7 °C 1013.8 hPa SSW 35.4 km/h 35.4 km/h 42 % 0.0 mm 745.0 W/m2 SCT
16:12 19.5 °C 6.2 °C 1013.8 hPa South 35.4 km/h 35.4 km/h 42 % 0.0 mm 724.0 W/m2 SCT
16:17 19.3 °C 6.1 °C 1013.8 hPa ESE 35.4 km/h 35.4 km/h 42 % 0.0 mm 717.0 W/m2 SCT
16:22 19.3 °C 6.1 °C 1013.8 hPa SSE 35.4 km/h 35.4 km/h 42 % 0.0 mm 701.0 W/m2 SCT
16:27 19.1 °C 6.2 °C 1013.8 hPa ESE 35.4 km/h 35.4 km/h 43 % 0.0 mm 664.0 W/m2 SCT
16:32 18.9 °C 5.7 °C 1013.8 hPa SE 35.4 km/h 35.4 km/h 42 % 0.0 mm 652.0 W/m2 SCT
16:37 19.3 °C 6.4 °C 1013.8 hPa ESE 35.4 km/h 35.4 km/h 43 % 0.0 mm 645.0 W/m2 SCT
16:42 19.9 °C 7.3 °C 1013.8 hPa SSE 35.4 km/h 35.4 km/h 44 % 0.0 mm 647.0 W/m2 SCT
16:47 19.9 °C 6.9 °C 1013.4 hPa SE 35.4 km/h 35.4 km/h 43 % 0.0 mm 631.0 W/m2 SCT
16:52 19.3 °C 6.4 °C 1013.4 hPa East 35.4 km/h 35.4 km/h 43 % 0.0 mm 615.0 W/m2 SCT
16:57 19.1 °C 6.6 °C 1013.4 hPa SE 35.4 km/h 35.4 km/h 44 % 0.0 mm 592.0 W/m2 SCT
17:02 19.2 °C 5.9 °C 1013.4 hPa ENE 35.4 km/h 35.4 km/h 42 % 0.0 mm 555.0 W/m2 SCT
17:07 19.0 °C 6.1 °C 1013.4 hPa ENE 35.4 km/h 35.4 km/h 43 % 0.0 mm 332.0 W/m2 SCT
17:12 19.3 °C 6.7 °C 1013.4 hPa East 35.4 km/h 35.4 km/h 44 % 0.0 mm 543.0 W/m2 SCT
17:18 19.2 °C 6.3 °C 1013.4 hPa ESE 35.4 km/h 35.4 km/h 43 % 0.0 mm 510.0 W/m2 SCT
17:23 19.2 °C 6.3 °C 1013.4 hPa East 35.4 km/h 35.4 km/h 43 % 0.0 mm 494.0 W/m2 SCT
17:28 18.9 °C 6.4 °C 1013.4 hPa SE 35.4 km/h 35.4 km/h 44 % 0.0 mm 299.0 W/m2 SCT
17:33 19.2 °C 6.9 °C 1013.4 hPa SE 35.4 km/h 35.4 km/h 45 % 0.0 mm 114.0 W/m2 SCT
17:38 18.8 °C 6.3 °C 1013.4 hPa East 35.4 km/h 35.4 km/h 44 % 0.0 mm 104.0 W/m2 SCT
17:43 18.9 °C 6.7 °C 1013.1 hPa East 35.4 km/h 35.4 km/h 45 % 0.0 mm 385.0 W/m2 SCT
17:48 18.8 °C 6.6 °C 1013.1 hPa ESE 35.4 km/h 35.4 km/h 45 % 0.0 mm 360.0 W/m2 SCT
17:53 19.1 °C 7.2 °C 1013.1 hPa ENE 35.4 km/h 35.4 km/h 46 % 0.0 mm 336.0 W/m2 SCT
17:58 18.8 °C 6.6 °C 1013.1 hPa SE 35.4 km/h 35.4 km/h 45 % 0.0 mm 316.0 W/m2 SCT
18:03 18.9 °C 6.7 °C 1013.1 hPa ESE 35.4 km/h 35.4 km/h 45 % 0.0 mm 315.0 W/m2 SCT
18:08 18.6 °C 6.1 °C 1013.1 hPa ENE 35.4 km/h 35.4 km/h 44 % 0.0 mm 301.0 W/m2 SCT
18:13 18.6 °C 6.1 °C 1013.1 hPa NE 35.4 km/h 35.4 km/h 44 % 0.0 mm 287.0 W/m2 SCT
18:18 18.6 °C 6.1 °C 1012.8 hPa NE 35.4 km/h 35.4 km/h 44 % 0.0 mm 283.0 W/m2 SCT
18:23 18.8 °C 6.3 °C 1013.1 hPa East 35.4 km/h 35.4 km/h 44 % 0.0 mm 269.0 W/m2 SCT
18:28 18.5 °C 6.3 °C 1012.8 hPa ESE 35.4 km/h 35.4 km/h 45 % 0.0 mm 246.0 W/m2 SCT
18:33 18.6 °C 6.7 °C 1012.8 hPa ESE 35.4 km/h 35.4 km/h 46 % 0.0 mm 230.0 W/m2 SCT
18:38 18.4 °C 6.3 °C 1012.8 hPa East 35.4 km/h 35.4 km/h 45 % 0.0 mm 213.0 W/m2 SCT
18:43 18.4 °C 6.2 °C 1012.8 hPa East 35.4 km/h 35.4 km/h 45 % 0.0 mm 200.0 W/m2 SCT
Stazione Meteorologica MeteoMincio Rivalta s/M (MN)
Con i complimenti di Weather Underground - 3.5 mb


METEO PILLOLE
Il disastro meteorologico più costoso
Bahamas, Florida e Louisiana
Nel 1992 il piccolo ma distruttivo uragano Andrew provoca danni valutati in 25 miliardi di dollari.

Share
Non seguire questo link o sarai bannato dal sito!